Simultaneous Nadir Overpasses (SNOs) Predictions

Prediction of SNOs between NOAA-20 and METOP-C Satellite Orbit:

Table of predicted SNOs for the next 14.0 days since TLE Epoch: 2/24/2023
Index Date (NOAA-20) Time (NOAA-20) Lat,Lon (NOAA-20) SZA (NOAA-20 ) Date (METOP-C) Time (METOP-C) Lat,Lon (METOP-C) SZA (METOP-C ) Distance(km) Time Diff (sec)
1 03/09/2023 16:23:42 73.51, -75.72 78.22 03/09/2023 16:24:48 73.44, -72.77 77.98 93.59 66
2 03/09/2023 17:14:25 -73.44, 91.75 101.87 03/09/2023 17:15:32 -73.40, 94.45 102.08 85.82 67
3 03/09/2023 18:05:06 73.21,-100.42 77.86 03/09/2023 18:06:15 73.16, -98.72 77.71 54.98 69
4 03/09/2023 18:55:49 -73.14, 67.04 102.23 03/09/2023 18:57:00 -73.07, 68.40 102.39 44.52 71
5 03/09/2023 19:46:30 72.91,-125.14 77.50 03/09/2023 19:47:43 72.84,-124.75 77.39 14.91 73
6 03/09/2023 20:37:13 -72.84, 42.31 102.59 03/09/2023 20:38:27 -72.80, 42.48 102.66 7.34 74
7 03/09/2023 21:27:57 72.76,-150.20 77.31 03/09/2023 21:29:06 72.76,-150.25 77.30 1.63 69
8 03/09/2023 22:18:42 -72.79, 17.04 102.67 03/09/2023 22:19:49 -72.77, 17.09 102.71 2.68 67
9 03/09/2023 23:09:26 72.76,-175.58 77.28 03/09/2023 23:10:27 72.74,-175.63 77.25 2.65 61
10 03/10/2023 00:00:10 -72.74, -8.23 102.75 03/10/2023 00:01:10 -72.75, -8.30 102.76 2.18 60
11 03/10/2023 00:50:56 72.76, 159.04 77.26 03/10/2023 00:51:48 72.77, 159.08 77.25 1.71 52
12 03/10/2023 01:41:40 -72.75, -33.61 102.78 03/10/2023 01:42:32 -72.73, -33.68 102.81 3.04 52
13 03/10/2023 02:32:26 72.76, 133.66 77.23 03/10/2023 02:33:10 72.75, 133.70 77.20 2.27 44
14 03/10/2023 03:23:10 -72.75, -58.99 102.80 03/10/2023 03:23:53 -72.76, -58.96 102.81 1.25 43
15 03/10/2023 04:13:55 72.72, 108.39 77.15 03/10/2023 04:14:32 72.72, 108.31 77.15 2.71 37
16 03/10/2023 05:04:40 -72.75, -84.37 102.83 03/10/2023 05:05:15 -72.73, -84.35 102.86 1.96 35



Historial Predications of SNOs between NOAA-20 and METOP-C
